DW8450 Weather Reports


time (UTC)temp
C
wind
direction
speed
KPH
gust
KPH
rain 1hr
cm
rain 24hr
cm
rain mn
cm
humidity
%
barometer
mb
20211205103114 3 300 6.4 9.7 0.00 0.00 0.00 44 1017.1
20211205101555 5 302 6.4 9.7 0.00 0.00 0.00 39 1017.2
20211205100056 6 315 9.7 19.3 0.00 0.00 0.00 37 1017.3
20211205094614 6 311 8.0 20.9 0.00 0.00 0.00 37 1017.4
20211205093115 7 317 8.0 20.9 0.00 0.00 0.00 36 1017.5
20211205091627 7 330 9.7 19.3 0.00 0.00 0.00 36 1017.6
20211205090150 7 327 12.9 22.5 0.00 0.00 0.00 37 1017.7
20211205084611 6 332 12.9 22.5 0.00 0.00 0.00 41 1017.8
20211205081522 3 324 8.0 16.1 0.00 0.00 0.00 51 1018.2
20211205080050 2 313 1.6 9.7 0.00 0.00 0.00 52 1018.3
20211205074552 1 313 3.2 9.7 0.00 0.00 0.00 57 1018.6
20211205073019 1 305 0.0 3.2 0.00 0.00 0.00 57 1018.8
20211205071529 1 305 0.0 4.8 0.00 0.00 0.00 56 1018.8
20211205070011 1 305 0.0 0.0 0.00 0.00 0.00 55 1018.9
20211205064507 2 305 0.0 4.8 0.00 0.00 0.00 55 1019.2
20211205063007 2 305 0.0 0.0 0.00 0.00 0.00 55 1019.1
20211205061511 2 305 0.0 0.0 0.00 0.00 0.00 55 1019.2
20211205060009 2 305 0.0 0.0 0.00 0.00 0.00 54 1019.3
20211205054514 2 305 0.0 4.8 0.00 0.00 0.00 53 1019.5
20211205053005 2 305 1.6 6.4 0.00 0.00 0.00 53 1019.8
20211205051504 3 305 1.6 6.4 0.00 0.00 0.00 52 1019.8
20211205050005 3 305 1.6 6.4 0.00 0.00 0.00 52 1019.9
20211205044504 3 305 1.6 6.4 0.00 0.00 0.00 50 1019.9
20211205043003 4 305 1.6 6.4 0.00 0.00 0.00 49 1019.9
20211205041504 5 305 4.8 9.7 0.00 0.00 0.00 50 1019.8
20211205040002 4 300 3.2 8.0 0.00 0.00 0.00 51 1019.8
20211205034510 4 291 1.6 8.0 0.00 0.00 0.00 51 1019.9
20211205033010 3 267 1.6 6.4 0.00 0.00 0.00 52 1019.8
20211205031503 3 266 0.0 3.2 0.00 0.00 0.00 50 1019.7
20211205030128 4 266 0.0 4.8 0.00 0.00 0.00 48 1019.6
20211205024640 4 266 0.0 1.6 0.00 0.00 0.00 48 1019.6
20211205023216 5 266 0.0 1.6 0.00 0.00 0.00 47 1019.5
20211205021725 5 266 0.0 1.6 0.00 0.00 0.00 47 1019.5
20211205020112 5 266 0.0 0.0 0.00 0.00 0.00 45 1019.5
20211205014809 5 266 0.0 0.0 0.00 0.00 0.00 44 1019.5
20211205013149 6 266 0.0 0.0 0.00 0.00 0.00 44 1019.5
20211205011633 6 266 0.0 0.0 0.00 0.00 0.00 42 1019.5
20211205010106 6 266 0.0 0.0 0.00 0.00 0.00 40 1019.4
20211205004616 7 266 0.0 0.0 0.00 0.00 0.00 38 1019.5
20211205003120 8 266 0.0 0.0 0.00 0.00 0.00 35 1019.4
20211205001635 9 266 0.0 0.0 0.00 0.00 0.00 33 1019.4
20211205000141 10 266 0.0 1.6 0.00 0.00 0.00 32 1019.4
20211204234629 11 266 0.0 4.8 0.00 0.00 0.00 30 1019.5
20211204233055 12 266 1.6 8.0 0.00 0.00 0.00 29 1019.4
20211204231724 12 268 3.2 12.9 0.00 0.00 0.00 28 1019.3
20211204230112 12 273 4.8 9.7 0.00 0.00 0.00 28 1019.1
20211204224641 13 263 4.8 14.5 0.00 0.00 0.00 28 1019.1
20211204223117 13 292 6.4 16.1 0.00 0.00 0.00 27 1018.8
20211204221709 13 284 9.7 19.3 0.00 0.00 0.00 27 1018.7
20211204214609 13 289 6.4 16.1 0.00 0.00 0.00 28 1018.6
20211204213138 14 282 6.4 17.7 0.00 0.00 0.00 28 1018.5
20211204211649 14 280 8.0 19.3 0.00 0.00 0.00 28 1018.6
20211204210118 14 284 9.7 19.3 0.00 0.00 0.00 28 1018.7
20211204204614 14 279 6.4 17.7 0.00 0.00 0.00 27 1018.8
20211204203157 15 299 9.7 19.3 0.00 0.00 0.00 27 1018.9
20211204201624 15 292 8.0 16.1 0.00 0.00 0.00 27 1019.1
20211204200055 14 281 6.4 17.7 0.00 0.00 0.00 27 1019.3
20211204194629 14 292 6.4 19.3 0.00 0.00 0.00 28 1019.7
20211204193051 14 263 6.4 20.9 0.00 0.00 0.00 28 1019.9
20211204191620 14 288 6.4 16.1 0.00 0.00 0.00 28 1020.3
20211204190107 14 292 9.7 19.3 0.00 0.00 0.00 28 1020.7
20211204184559 13 249 4.8 16.1 0.00 0.00 0.00 30 1021.1
20211204183025 13 274 8.0 14.5 0.00 0.00 0.00 30 1021.5
20211204181531 12 286 8.0 14.5 0.00 0.00 0.00 32 1021.8
20211204180020 12 269 3.2 11.3 0.00 0.00 0.00 35 1022.1
20211204174522 11 259 4.8 11.3 0.00 0.00 0.00 37 1022.5
20211204173032 10 290 3.2 9.7 0.00 0.00 0.00 39 1022.6
20211204171505 9 309 1.6 8.0 0.00 0.00 0.00 44 1022.7
20211204164651 8 342 1.6 8.0 0.00 0.00 0.00 47 1023.0
20211204163136 7 51 1.6 8.0 0.00 0.00 0.00 48 1023.1
20211204161601 7 53 3.2 8.0 0.00 0.00 0.00 50 1023.2
20211204160200 6 53 1.6 4.8 0.00 0.00 0.00 52 1023.2
20211204154634 6 53 0.0 0.0 0.00 0.00 0.00 55 1023.3
20211204153038 5 53 0.0 3.2 0.00 0.00 0.00 61 1023.4
20211204151634 3 53 0.0 0.0 0.00 0.00 0.00 66 1023.4
20211204150046 1 53 0.0 0.0 0.00 0.00 0.00 70 1023.2
20211204144540 0 53 0.0 0.0 0.00 0.00 0.00 73 1023.1
20211204143112 0 53 0.0 0.0 0.00 0.00 0.00 72 1023.2
20211204141535 0 53 0.0 0.0 0.00 0.00 0.00 71 1023.2
20211204140030 0 53 0.0 0.0 0.00 0.00 0.00 70 1023.1
20211204134521 0 53 0.0 0.0 0.00 0.00 0.00 68 1023.2
20211204133016 0 53 0.0 4.8 0.00 0.00 0.00 69 1023.1
20211204131517 0 53 1.6 3.2 0.00 0.00 0.00 70 1023.0
20211204130030 0 53 0.0 1.6 0.00 0.00 0.00 66 1022.9
20211204124514 0 53 0.0 4.8 0.00 0.00 0.00 65 1022.8
20211204123028 0 53 0.0 3.2 0.00 0.00 0.00 66 1022.7
20211204121513 0 53 1.6 4.8 0.00 0.00 0.00 66 1022.7
20211204120033 0 53 0.0 4.8 0.00 0.00 0.00 66 1022.7
20211204114532 0 53 0.0 4.8 0.00 0.00 0.00 64 1022.6
20211204113030 0 53 0.0 4.8 0.00 0.00 0.00 64 1022.6
20211204111523 0 53 3.2 8.0 0.00 0.00 0.00 65 1022.6
20211204110016 0 53 1.6 4.8 0.00 0.00 0.00 65 1022.5